�������l�o���
Date,Time,MP-1(��Sv/h),MP-2(��Sv/h),MP-3(��Sv/h),MP-4(��Sv/h),MP-5(��Sv/h),MP-6(��Sv/h),MP-7(��Sv/h),MP-8(��Sv/h),����,����(m/s),���J
2023/06/15,00:00,0.511,0.756,0.469,0.915,0.651,0.315,0.547,0.521,�k�k��,4.0,��
2023/06/15,00:10,0.511,0.756,0.468,0.917,0.652,0.315,0.548,0.520,�k�k��,4.6,��
2023/06/15,00:20,0.510,0.756,0.468,0.915,0.652,0.315,0.549,0.523,�k�k��,4.6,��
2023/06/15,00:30,0.512,0.756,0.470,0.916,0.651,0.314,0.549,0.521,�k�k��,5.3,��
2023/06/15,00:40,0.511,0.757,0.470,0.917,0.651,0.316,0.547,0.521,�k��,5.0,�L
2023/06/15,00:50,0.509,0.759,0.470,0.917,0.653,0.315,0.546,0.521,�k�k��,5.7,��
2023/06/15,01:00,0.510,0.758,0.468,0.916,0.654,0.315,0.547,0.521,�k�k��,5.4,��
2023/06/15,01:10,0.510,0.758,0.468,0.915,0.653,0.315,0.549,0.523,�k�k��,4.6,��
2023/06/15,01:20,0.510,0.758,0.469,0.917,0.653,0.315,0.548,0.522,�k�k��,4.1,��
2023/06/15,01:30,0.511,0.759,0.471,0.916,0.653,0.315,0.548,0.522,�k�k��,4.3,��
2023/06/15,01:40,0.511,0.757,0.469,0.916,0.653,0.314,0.550,0.521,�k�k��,4.1,��
2023/06/15,01:50,0.511,0.757,0.469,0.917,0.653,0.315,0.548,0.522,�k�k��,4.7,��
2023/06/15,02:00,0.511,0.758,0.470,0.918,0.655,0.315,0.548,0.522,�k�k��,5.2,��
2023/06/15,02:10,0.510,0.758,0.470,0.915,0.653,0.316,0.548,0.523,�k�k��,5.4,��
2023/06/15,02:20,0.509,0.757,0.470,0.917,0.654,0.316,0.547,0.522,�k�k��,4.5,��
2023/06/15,02:30,0.509,0.759,0.470,0.917,0.654,0.314,0.550,0.522,�k�k��,4.0,��
2023/06/15,02:40,0.512,0.760,0.469,0.917,0.655,0.316,0.549,0.522,�k�k��,3.8,��
2023/06/15,02:50,0.510,0.758,0.468,0.916,0.653,0.316,0.550,0.522,�k�k��,3.6,��
2023/06/15,03:00,0.510,0.757,0.470,0.919,0.653,0.316,0.549,0.522,�k�k��,4.4,��
2023/06/15,03:10,0.511,0.760,0.469,0.918,0.655,0.315,0.550,0.521,�k�k��,5.2,��
2023/06/15,03:20,0.511,0.761,0.470,0.918,0.655,0.316,0.550,0.522,�k�k��,5.7,��
2023/06/15,03:30,0.511,0.758,0.470,0.919,0.655,0.315,0.551,0.522,�k�k��,5.8,��
2023/06/15,03:40,0.511,0.758,0.470,0.918,0.655,0.315,0.550,0.522,�k�k��,5.3,��
2023/06/15,03:50,0.512,0.757,0.469,0.920,0.655,0.314,0.549,0.523,�k�k��,4.8,��
2023/06/15,04:00,0.511,0.758,0.471,0.921,0.655,0.314,0.549,0.522,�k�k��,4.7,��
2023/06/15,04:10,0.511,0.760,0.471,0.918,0.656,0.317,0.552,0.521,�k�k��,5.0,��
2023/06/15,04:20,0.511,0.759,0.471,0.918,0.654,0.315,0.549,0.522,�k,4.7,��
2023/06/15,04:30,0.512,0.758,0.470,0.921,0.655,0.314,0.549,0.522,�k�k��,5.2,�L
2023/06/15,04:40,0.512,0.761,0.470,0.920,0.655,0.316,0.550,0.523,�k�k��,4.8,�L
2023/06/15,04:50,0.512,0.760,0.471,0.920,0.657,0.315,0.551,0.522,�k,5.4,��
2023/06/15,05:00,0.512,0.761,0.470,0.919,0.657,0.316,0.551,0.521,�k,5.6,��
2023/06/15,05:10,0.512,0.760,0.471,0.920,0.657,0.315,0.551,0.521,�k,5.6,��
2023/06/15,05:20,0.511,0.761,0.471,0.919,0.656,0.315,0.550,0.520,�k�k��,5.9,��
2023/06/15,05:30,0.512,0.760,0.470,0.920,0.658,0.315,0.552,0.522,�k�k��,5.6,��
2023/06/15,05:40,0.512,0.762,0.471,0.919,0.656,0.314,0.549,0.522,�k�k��,6.2,��
2023/06/15,05:50,0.511,0.761,0.470,0.919,0.657,0.316,0.551,0.520,�k�k��,6.2,��
2023/06/15,06:00,0.511,0.760,0.470,0.922,0.656,0.315,0.551,0.522,�k�k��,5.8,�L
2023/06/15,06:10,0.512,0.760,0.469,0.920,0.656,0.314,0.551,0.521,�k�k��,5.7,�L
2023/06/15,06:20,0.511,0.758,0.470,0.919,0.657,0.314,0.551,0.520,�k,5.0,�L
2023/06/15,06:30,0.510,0.757,0.469,0.919,0.655,0.316,0.549,0.520,�k�k��,6.1,�L
2023/06/15,06:40,0.509,0.756,0.468,0.917,0.651,0.313,0.547,0.521,�k�k��,6.5,�L
2023/06/15,06:50,0.510,0.754,0.468,0.915,0.646,0.314,0.549,0.518,�k�k��,6.1,�L
2023/06/15,07:00,0.510,0.756,0.470,0.918,0.650,0.314,0.550,0.519,�k�k��,5.2,��
2023/06/15,07:10,0.510,0.755,0.469,0.918,0.650,0.313,0.549,0.517,�k�k��,6.4,��
2023/06/15,07:20,0.510,0.755,0.468,0.916,0.649,0.314,0.550,0.520,�k�k��,6.8,��
2023/06/15,07:30,0.509,0.757,0.469,0.916,0.652,0.314,0.548,0.520,�k�k��,6.0,��
2023/06/15,07:40,0.510,0.757,0.470,0.916,0.651,0.313,0.549,0.521,�k�k��,6.5,��
2023/06/15,07:50,0.509,0.758,0.467,0.918,0.650,0.313,0.549,0.520,�k�k��,6.4,��
2023/06/15,08:00,0.509,0.755,0.468,0.918,0.649,0.314,0.549,0.519,�k�k��,6.9,��
2023/06/15,08:10,0.509,0.754,0.468,0.916,0.651,0.314,0.549,0.518,�k�k��,6.4,��
2023/06/15,08:20,0.509,0.756,0.467,0.919,0.652,0.313,0.548,0.519,�k�k��,7.8,�L
2023/06/15,08:30,0.510,0.753,0.467,0.917,0.650,0.314,0.549,0.520,�k,5.9,�L
2023/06/15,08:40,0.510,0.755,0.466,0.917,0.650,0.313,0.548,0.520,�k�k��,6.1,�L
2023/06/15,08:50,0.509,0.755,0.467,0.917,0.651,0.313,0.548,0.520,�k,4.9,�L
2023/06/15,09:00,0.511,0.755,0.466,0.919,0.652,0.314,0.548,0.519,�k,6.0,�L
2023/06/15,09:10,0.511,0.756,0.467,0.919,0.652,0.315,0.547,0.519,�k,6.1,�L
2023/06/15,09:20,0.510,0.756,0.468,0.918,0.652,0.315,0.548,0.519,�k,5.9,�L
2023/06/15,09:30,0.510,0.755,0.468,0.919,0.653,0.316,0.548,0.518,�k,6.5,�L
2023/06/15,09:40,0.509,0.756,0.467,0.919,0.651,0.315,0.545,0.521,�k,5.9,�L
2023/06/15,09:50,0.509,0.754,0.468,0.920,0.652,0.315,0.544,0.519,�k�k��,5.7,�L
2023/06/15,10:00,0.508,0.751,0.466,0.917,0.650,0.315,0.545,0.518,�k�k��,6.1,�L
2023/06/15,10:10,0.508,0.752,0.467,0.915,0.652,0.316,0.546,0.518,�k�k��,6.0,�L
2023/06/15,10:20,0.508,0.749,0.465,0.915,0.651,0.315,0.543,0.518,�k�k��,5.3,�L
2023/06/15,10:30,0.506,0.748,0.466,0.914,0.645,0.314,0.543,0.517,�k�k��,5.8,�L
2023/06/15,10:40,0.508,0.748,0.467,0.912,0.647,0.314,0.545,0.518,�k�k��,5.0,�L
2023/06/15,10:50,0.509,0.748,0.466,0.913,0.646,0.314,0.546,0.517,�k�k��,4.8,�L
2023/06/15,11:00,0.510,0.747,0.467,0.913,0.646,0.313,0.547,0.518,�k�k��,5.5,�L
2023/06/15,11:10,0.507,0.749,0.466,0.909,0.646,0.312,0.545,0.518,�k�k��,5.5,�L
2023/06/15,11:20,0.507,0.750,0.465,0.910,0.646,0.314,0.546,0.518,�k�k��,5.6,�L
2023/06/15,11:30,0.508,0.750,0.465,0.912,0.645,0.314,0.546,0.520,�k�k��,5.1,�L
2023/06/15,11:40,0.509,0.751,0.468,0.911,0.647,0.315,0.545,0.518,�k�k��,4.8,�L
2023/06/15,11:50,0.508,0.750,0.466,0.911,0.645,0.314,0.543,0.517,�k�k��,5.2,�L
2023/06/15,12:00,0.508,0.751,0.465,0.910,0.648,0.313,0.545,0.520,�k,5.1,�L
2023/06/15,12:10,0.508,0.749,0.466,0.910,0.648,0.314,0.547,0.517,�k,5.8,�L
2023/06/15,12:20,0.508,0.750,0.466,0.911,0.647,0.315,0.547,0.518,�k,6.7,�L
2023/06/15,12:30,0.508,0.751,0.466,0.909,0.648,0.314,0.548,0.520,�k,5.7,�L
2023/06/15,12:40,0.507,0.752,0.466,0.910,0.649,0.314,0.547,0.519,�k,4.5,�L
2023/06/15,12:50,0.509,0.748,0.467,0.911,0.648,0.313,0.548,0.517,�k�k��,5.3,�L
2023/06/15,13:00,0.508,0.751,0.465,0.912,0.649,0.313,0.546,0.518,�k�k��,3.8,�L
2023/06/15,13:10,0.509,0.750,0.466,0.911,0.649,0.314,0.548,0.519,�k�k��,4.6,��
2023/06/15,13:20,0.505,0.751,0.468,0.911,0.650,0.313,0.547,0.518,�k�k��,4.7,�L
2023/06/15,13:30,0.508,0.754,0.468,0.913,0.649,0.313,0.547,0.519,�k�k��,3.8,�L
2023/06/15,13:40,0.508,0.752,0.469,0.913,0.650,0.313,0.548,0.519,�k�k��,3.0,�L
2023/06/15,13:50,0.508,0.754,0.470,0.914,0.653,0.313,0.548,0.519,�k��,3.9,�L
2023/06/15,14:00,0.508,0.754,0.470,0.915,0.652,0.314,0.547,0.520,�k��,4.0,�L
2023/06/15,14:10,0.509,0.752,0.468,0.913,0.652,0.314,0.547,0.520,�k��,3.6,�L
2023/06/15,14:20,0.509,0.752,0.468,0.916,0.652,0.314,0.548,0.520,�k�k��,3.1,�L
2023/06/15,14:30,0.510,0.752,0.469,0.916,0.654,0.314,0.546,0.519,�k�k��,3.4,��
2023/06/15,14:40,0.510,0.754,0.468,0.916,0.652,0.314,0.548,0.519,�k�k��,3.1,��
2023/06/15,14:50,0.511,0.754,0.468,0.913,0.652,0.315,0.548,0.520,�k�k��,3.2,��
2023/06/15,15:00,0.510,0.753,0.469,0.916,0.653,0.314,0.549,0.519,�k,2.8,��
2023/06/15,15:10,0.508,0.754,0.470,0.914,0.654,0.314,0.548,0.521,�k,2.3,�L
2023/06/15,15:20,0.508,0.753,0.469,0.915,0.654,0.315,0.548,0.519,�k�k��,1.7,�L
2023/06/15,15:30,0.507,0.754,0.469,0.916,0.654,0.315,0.548,0.521,�k�k��,2.6,�L
2023/06/15,15:40,0.509,0.756,0.468,0.916,0.653,0.314,0.549,0.520,�k,3.0,�L
2023/06/15,15:50,0.509,0.756,0.470,0.914,0.653,0.316,0.549,0.521,�k,2.3,��
2023/06/15,16:00,0.510,0.756,0.469,0.913,0.655,0.315,0.548,0.519,�k�k��,2.2,��
2023/06/15,16:10,0.512,0.756,0.469,0.916,0.655,0.316,0.548,0.520,�k��,2.5,��
2023/06/15,16:20,0.509,0.759,0.468,0.916,0.654,0.314,0.549,0.520,�k�k��,2.5,��
2023/06/15,16:30,0.511,0.757,0.469,0.916,0.656,0.315,0.548,0.521,�k�k��,3.3,��
2023/06/15,16:40,0.510,0.756,0.470,0.918,0.654,0.315,0.548,0.522,�k�k��,3.0,��
2023/06/15,16:50,0.511,0.758,0.470,0.916,0.656,0.316,0.549,0.521,�k�k��,3.1,�L
2023/06/15,17:00,0.512,0.757,0.471,0.917,0.657,0.315,0.550,0.522,�k�k��,2.5,�L
2023/06/15,17:10,0.513,0.756,0.469,0.917,0.654,0.316,0.549,0.521,�k�k��,1.7,�L
2023/06/15,17:20,0.512,0.758,0.470,0.918,0.656,0.316,0.549,0.521,�k�k��,2.0,�L
2023/06/15,17:30,0.512,0.759,0.472,0.917,0.658,0.318,0.550,0.520,�k,1.9,�L
2023/06/15,17:40,0.512,0.759,0.472,0.916,0.658,0.316,0.549,0.522,�k�k��,1.7,�L
2023/06/15,17:50,0.513,0.761,0.473,0.919,0.659,0.319,0.551,0.522,�k�k��,3.2,�L
2023/06/15,18:00,0.511,0.760,0.472,0.920,0.658,0.317,0.551,0.520,�k�k��,3.9,�L
2023/06/15,18:10,0.511,0.760,0.472,0.916,0.659,0.317,0.549,0.520,�k�k��,4.1,�L
2023/06/15,18:20,0.510,0.758,0.471,0.917,0.658,0.317,0.550,0.521,�k,3.9,�L
2023/06/15,18:30,0.511,0.759,0.471,0.917,0.656,0.316,0.550,0.522,�k,3.8,�L
2023/06/15,18:40,0.511,0.757,0.471,0.919,0.656,0.316,0.550,0.521,�k,3.9,�L
2023/06/15,18:50,0.510,0.757,0.470,0.917,0.655,0.317,0.550,0.520,�k,3.8,�L
2023/06/15,19:00,0.509,0.759,0.470,0.917,0.654,0.315,0.551,0.521,�k�k��,3.6,�L
2023/06/15,19:10,0.510,0.758,0.471,0.918,0.655,0.316,0.551,0.521,�k�k��,3.0,�L
2023/06/15,19:20,0.510,0.758,0.470,0.919,0.656,0.316,0.549,0.523,�k,2.8,�L
2023/06/15,19:30,0.511,0.759,0.469,0.918,0.657,0.316,0.551,0.521,�k,3.2,�L
2023/06/15,19:40,0.510,0.760,0.470,0.920,0.657,0.315,0.548,0.521,�k,3.7,�L
2023/06/15,19:50,0.510,0.758,0.469,0.917,0.658,0.316,0.548,0.521,�k,3.9,�L
2023/06/15,20:00,0.510,0.758,0.470,0.919,0.656,0.317,0.550,0.520,�k,4.1,�L
2023/06/15,20:10,0.510,0.758,0.470,0.920,0.657,0.318,0.550,0.521,�k,3.7,�L
2023/06/15,20:20,0.510,0.757,0.471,0.917,0.657,0.318,0.549,0.521,�k,3.5,�L
2023/06/15,20:30,0.510,0.758,0.470,0.919,0.657,0.316,0.550,0.521,�k,3.6,�L
2023/06/15,20:40,0.511,0.759,0.471,0.918,0.655,0.316,0.550,0.520,�k,2.9,�L
2023/06/15,20:50,0.510,0.758,0.470,0.918,0.657,0.317,0.550,0.521,�k,3.9,�L
2023/06/15,21:00,0.510,0.757,0.470,0.919,0.656,0.317,0.549,0.522,�k,4.0,�L
2023/06/15,21:10,0.510,0.759,0.469,0.918,0.656,0.316,0.549,0.523,�k,3.1,�L
2023/06/15,21:20,0.510,0.759,0.470,0.919,0.656,0.317,0.550,0.522,�k,3.6,�L
2023/06/15,21:30,0.511,0.759,0.470,0.918,0.658,0.317,0.549,0.521,�k�k��,3.6,�L
2023/06/15,21:40,0.511,0.760,0.471,0.919,0.656,0.316,0.551,0.521,�k�k��,3.5,��
2023/06/15,21:50,0.510,0.756,0.469,0.919,0.656,0.316,0.551,0.522,�k�k��,3.5,�L
2023/06/15,22:00,0.509,0.759,0.471,0.920,0.657,0.317,0.551,0.522,�k�k��,4.1,��
2023/06/15,22:10,0.508,0.758,0.469,0.920,0.655,0.317,0.551,0.522,�k�k��,3.6,��
2023/06/15,22:20,0.512,0.759,0.470,0.918,0.657,0.316,0.550,0.523,�k�k��,2.8,�L
2023/06/15,22:30,0.510,0.759,0.468,0.918,0.654,0.316,0.549,0.522,�k�k��,2.6,�L
2023/06/15,22:40,0.508,0.754,0.468,0.916,0.651,0.316,0.549,0.520,�k�k��,2.0,�L
2023/06/15,22:50,0.508,0.753,0.468,0.917,0.650,0.315,0.550,0.521,�k�k��,1.4,�L
2023/06/15,23:00,0.508,0.751,0.470,0.912,0.647,0.314,0.547,0.518,�k�k��,2.0,�L
2023/06/15,23:10,0.503,0.746,0.468,0.907,0.643,0.314,0.543,0.514,�k�k��,0.6,�L
2023/06/15,23:20,0.502,0.742,0.465,0.898,0.637,0.313,0.544,0.514,�k�k��,4.9,�L
2023/06/15,23:30,0.499,0.737,0.464,0.896,0.636,0.315,0.544,0.514,�k,4.4,�L
2023/06/15,23:40,0.500,0.737,0.464,0.895,0.637,0.315,0.544,0.514,�k,3.9,�L
2023/06/15,23:50,0.501,0.737,0.464,0.893,0.636,0.314,0.542,0.513,�k,3.9,�L
